Flag for U.S.A. Weather past 2 weeks in Nashville, Tennessee, U.S.A.

Now
45 °F

Clear.


Feels Like: 43 °F
Forecast: 41 / 67 °F
Wind: 5 mph from Northeast

Location: Nashville International Airport

Current Time: Oct 23, 2014 at 1:22:57 AM

Latest Report: Oct 23, 2014 at 12:53 AM


Visibility: 10 mi

Pressure: 30.22 "Hg

Humidity: 86%

Dew point: 41 °F

Location of NashvilleLocation

Historic Weather in Nashville — Graph

°F

Nashville temperature yesterday

Maximum temperature yesterday: 64 °F (at 2:53 PM)
Minimum temperature yesterday: 44 °F (at 5:53 AM)
Average temperature yesterday: 53 °F

Past Weeks' High & Low Weather Summary

 TemperatureHumidityPressure
High83 °F (Oct 8, 2:53 PM)100% (Oct 8, 5:53 AM)30.27 "Hg (Oct 8, 5:53 AM)
Low44 °F (Oct 20, 5:53 AM)22% (Oct 9, 11:53 AM)29.60 "Hg (Oct 14, 3:53 AM)
Average61 °F79%29.99 "Hg
* Reported Oct 7 11:53 PM — Oct 22 11:53 PM, Nashville, Weather by CustomWeather, © 2014

Note: Actual official high and low records may vary slightly from our data, if they occured in-between our weather recording intervals... More about our weather records

Advertising

Nashville weather history for previous 24 hours

 ConditionsComfort  
Time TempWeatherWind HumidityBarometerVisibility
11:53 PM
Oct 22
48 °FClear.No wind80%30.21 "Hg10 mi
10:53 PM50 °FClear.5 mph77%30.22 "Hg10 mi
9:53 PM51 °FClear.7 mph74%30.22 "Hg10 mi
8:53 PM51 °FClear.6 mph71%30.21 "Hg10 mi
7:53 PM52 °FClear.7 mph69%30.21 "Hg10 mi
6:53 PM54 °FClear.8 mph64%30.20 "Hg10 mi
5:53 PM58 °FSunny.9 mph54%30.20 "Hg10 mi
4:53 PM62 °FSunny.10 mph44%30.19 "Hg10 mi
3:53 PM63 °FSunny.9 mph45%30.19 "Hg10 mi
2:53 PM64 °FSunny.8 mph43%30.20 "Hg10 mi
1:53 PM61 °FSunny.5 mph46%30.22 "Hg10 mi
12:53 PM60 °FSunny.13 mph47%30.24 "Hg10 mi
11:53 AM58 °FSunny.10 mph50%30.26 "Hg10 mi
10:53 AM57 °FPassing clouds.13 mph55%30.27 "Hg10 mi
9:53 AM53 °FPassing clouds.12 mph64%30.26 "Hg10 mi
8:53 AM50 °FSunny.12 mph77%30.26 "Hg10 mi
7:53 AM48 °FSunny.7 mph83%30.23 "Hg10 mi
6:53 AM44 °FClear.5 mph89%30.22 "Hg10 mi
5:53 AM44 °FClear.5 mph89%30.20 "Hg10 mi
4:53 AM45 °FClear.6 mph86%30.18 "Hg10 mi
3:53 AM45 °FClear.5 mph86%30.16 "Hg10 mi
2:53 AM47 °FClear.5 mph83%30.15 "Hg10 mi
1:53 AM50 °FClear.3 mph77%30.14 "Hg10 mi
Weather by CustomWeather, © 2014

See weather overviewHow to use our weather pages